Weather History for Erzincan, Turkey

Change the Weather History Date:

Wednesday, January 23, 2013

  Actual Average Record
Temperature  
Mean Temperature 38 °F -  
Max Temperature 43 °F 38 °F - ()
Min Temperature 32 °F 22 °F - ()
Degree Days  
Heating Degree Days 28    
Moisture  
Dew Point 33 °F    
Average Humidity 89    
Maximum Humidity 100    
Minimum Humidity 67    
Precipitation  
Precipitation 0.00 in 0.04 in - ()
Sea Level Pressure  
Sea Level Pressure 30.04 in    
Wind  
Wind Speed 2 mph ()    
Max Wind Speed 7 mph    
Max Gust Speed -    
Visibility 5.1 miles    
Events      
T = Trace of Precipitation, MM = Missing Value Source: Averaged Metar Reports

Daily Weather History Graph

Daily Weather History Graph

Search for Another Location

Airport:

Trip Planner

Search our weather history database for the weather conditions in past years. The results will help you decide how hot, cold, wet, or windy it might be!

Date:

Astronomy

Jan. 23, 2013 Rise Set
Actual Time 6:36 AM EET 4:30 PM EET
Civil Twilight 6:07 AM EET 5:00 PM EET
Nautical Twilight 5:35 AM EET 5:32 PM EET
Astronomical Twilight 5:03 AM EET 6:04 PM EET
Moon 1:23 PM EET (1/23) 3:30 AM EET (1/23)
Length of Visible Light 10h 52m
Length of Day
9h 53m
Waxing Gibbous, 87% of the Moon is Illuminated
Jan 23
Waxing Gibbous
Jan 27
Full
Feb 3
Last Quarter
Feb 10
New
Feb 17
First Quarter

Hourly Weather History & Observations

Time (EET) Temp. Windchill Dew Point Humidity Pressure Visibility Wind Dir Wind Speed Gust Speed Precip Events Conditions
12:50 AM 33.8 °F 29.6 °F 33.8 °F 100% 30.04 in 4.3 mi West 4.6 mph - N/A   Mostly Cloudy
1:50 AM 35.6 °F 31.7 °F 32.0 °F 87% 30.04 in 4.3 mi NNW 4.6 mph - N/A   Mostly Cloudy
2:00 AM 35 °F - 32 °F 86%  in 4 mi NNW 4.6 mph - -   Mist
2:50 AM 35.6 °F - 32.0 °F 87% 30.04 in 4.3 mi North 2.3 mph - N/A   Mostly Cloudy
3:50 AM 33.8 °F - 33.8 °F 100% 30.04 in 4.3 mi NE 1.2 mph - N/A   Mostly Cloudy
4:50 AM 33.8 °F - 33.8 °F 100% 30.04 in 4.3 mi NE 1.2 mph - N/A   Mostly Cloudy
5:50 AM 33.8 °F 29.6 °F 33.8 °F 100% 30.04 in 6.2 mi West 4.6 mph - N/A   Mostly Cloudy
6:50 AM 33.8 °F - 32.0 °F 93% 30.04 in 6.2 mi Calm Calm - N/A   Mostly Cloudy
7:50 AM 33.8 °F - 32.0 °F 93% 30.04 in 6.2 mi Variable 2.3 mph - N/A   Mostly Cloudy
8:00 AM 34 °F - 33 °F 94%  in 6 mi ESE 2.3 mph - -   Partly Cloudy
8:50 AM 33.8 °F - 33.8 °F 100% 30.06 in 6.2 mi Variable 1.2 mph - N/A   Mostly Cloudy
9:50 AM 37.4 °F - 33.8 °F 87% 30.06 in 6.2 mi Calm Calm - N/A   Mostly Cloudy
10:50 AM 35.6 °F 31.7 °F 33.8 °F 93% 30.06 in 6.2 mi SE 4.6 mph - N/A   Mostly Cloudy
11:50 AM 39.2 °F 37.0 °F 33.8 °F 81% 30.04 in 6.2 mi East 3.5 mph - N/A   Mostly Cloudy
12:50 PM 42.8 °F - 33.8 °F 70% 30.01 in 6.2 mi Calm Calm - N/A   Mostly Cloudy
1:50 PM 42.8 °F - 33.8 °F 70% 30.01 in 6.2 mi Calm Calm - N/A   Mostly Cloudy
2:00 PM 42 °F - 35 °F 67%  in 6 mi Calm Calm - -   Partly Cloudy
2:50 PM 39.2 °F - 33.8 °F 81% 30.01 in 6.2 mi Calm Calm - N/A   Mostly Cloudy
3:50 PM 39.2 °F - 33.8 °F 81% 30.01 in 6.2 mi Calm Calm - N/A   Mostly Cloudy
4:50 PM 37.4 °F - 33.8 °F 87% 30.04 in 6.2 mi Calm Calm - N/A   Mostly Cloudy
5:50 PM 35.6 °F - 32.0 °F 87% 30.04 in 4.3 mi SE 2.3 mph - N/A   Mostly Cloudy
6:50 PM 33.8 °F 30.8 °F 32.0 °F 93% 30.04 in 4.3 mi NW 3.5 mph - N/A   Mostly Cloudy
7:50 PM 33.8 °F 29.6 °F 33.8 °F 100% 30.04 in 4.3 mi North 4.6 mph - N/A   Mostly Cloudy
8:00 PM 35 °F - 33 °F 91%  in 4 mi North 4.6 mph - -   Mist
8:50 PM 35.6 °F 32.8 °F 32.0 °F 87% 30.04 in 3.7 mi Variable 3.5 mph - N/A   Mostly Cloudy
9:50 PM 33.8 °F 27.7 °F 32.0 °F 93% 30.06 in 3.7 mi NE 6.9 mph - N/A   Mostly Cloudy
10:50 PM 33.8 °F - 32.0 °F 93% 30.04 in 3.7 mi Variable 1.2 mph - N/A   Mostly Cloudy
11:50 PM 33.8 °F - 32.0 °F 93% 30.04 in 3.7 mi Variable 1.2 mph - N/A   Mostly Cloudy